DLH59F EDDN-LJLJ

Flight info

Callsign DLH59F
Flight time N/A
Altitude 31000
Route RODIS1C/10 RODIS L604 LAMSI DCT BERTA BERTA2L
Aircraft A320/M-SDE3FGHIRWY/LB1

Departure

Time 2026-05-01 13:07
Airport Nuremberg Airport (EDDN)

Arrival

Time N/A
Airport Ljubljana Jože Pučnik Airport (LJLJ)
Time Latitude Longitude Altitude Speed Heading
2026-05-01 12:40 49.49518 11.07791 1026 ft 0 kts 188°
2026-05-01 12:53 49.49529 11.07793 1026 ft 1 kts 188°
2026-05-01 12:54 49.49538 11.07795 1024 ft 1 kts 188°
2026-05-01 12:54 49.49555 11.07799 1027 ft 1 kts 188°
2026-05-01 12:54 49.49564 11.07801 1027 ft 1 kts 184°
2026-05-01 12:55 49.49580 11.07814 1027 ft 2 kts 254°
2026-05-01 12:55 49.49581 11.07818 1027 ft 0 kts 276°
2026-05-01 12:56 49.49581 11.07816 1027 ft 1 kts 276°
2026-05-01 12:56 49.49589 11.07785 1023 ft 3 kts 303°
2026-05-01 12:57 49.49604 11.07774 1026 ft 2 kts 347°
2026-05-01 12:57 49.49657 11.07768 1026 ft 5 kts 347°
2026-05-01 12:57 49.49681 11.07730 1027 ft 6 kts 298°
2026-05-01 12:58 49.49692 11.07661 1024 ft 8 kts 278°
2026-05-01 12:58 49.49701 11.07570 1022 ft 9 kts 279°
2026-05-01 12:58 49.49705 11.07531 1023 ft 10 kts 279°
2026-05-01 12:59 49.49720 11.07391 1024 ft 12 kts 279°
2026-05-01 12:59 49.49731 11.07263 1023 ft 13 kts 278°
2026-05-01 12:59 49.49759 11.06974 1021 ft 15 kts 278°
2026-05-01 13:00 49.49792 11.06646 1020 ft 15 kts 279°
2026-05-01 13:00 49.49808 11.06482 1020 ft 16 kts 278°
2026-05-01 13:01 49.49843 11.06135 1020 ft 16 kts 278°
2026-05-01 13:01 49.49857 11.06025 1021 ft 15 kts 292°
2026-05-01 13:01 49.49899 11.05970 1023 ft 12 kts 335°
2026-05-01 13:02 49.49969 11.05931 1025 ft 9 kts 348°
2026-05-01 13:07 49.47930 11.33553 8005 ft 318 kts 95°
2026-05-01 13:07 49.47875 11.34655 8316 ft 318 kts 95°
2026-05-01 13:07 49.47778 11.36675 8918 ft 317 kts 95°